SCP
0 -0 -0 0 0 0 0 0 0 0 0 0 0 0 0 0 0 0 0 0 -0 -0 -0 -0 -0 0 0 -0 -0 -0 -0 -0 -0 -0 -0 -0 -0 0 0 0 0 0 0 0 0 0 0 0 0
0 0 0 0 0 0 0 0 0 0 0 0 0 0 0 0 0 0 0 0 -0 -0 -0 -0 -0 0 0 -0 -0 -0 -0 -0 -0 -0 -0 -0 0 0 0 0 0 0 0 0 0 0 0 0 0
0 0 0 0 0 0 0 0 0 0 0 0 0 0 0 0 0 0 0 0 -0 -0 -0 -0 -0 -0 0 0 -0 -0 -0 -0 -0 -0 -0 -0 0 0 0 0 0 0 0 0 0 0 0 0 0
0 0 0 0 0 0 0 0 0 0 0 0 0 0 0 0 0 0 0 0 -0 -0 -0 -0 0 -0 0 0 -0 -0 -0 -0 -0 -0 -0 -0 -0 -0 -0 -0 0 0 0 0 0 0 0 0 -0
0 0 0 0 0 0 0 0 0 0 0 0 0 0 0 0 0 0 0 0 0 0 0 -0 0 0 -0 0 -0 -0 -0 -0 -0 -0 -0 -0 -0 -0 -0 -0 0 0 -0 -0 -0 -0 -0 -0 -0
0 0 0 0 0 0 0 0 0 0 0 0 0 0 0 1 0 0 0 0 0 0 0 0 0 0 0 0 -0 -0 -0 -0 -0 -0 -0 -0 0 0 -0 -0 -0 -0 -0 -0 -0 -0 -0 -0 -0
0 0 0 0 0 0 0 0 0 0 0 0 0 0 0 0 1 1 0 0 0 0 0 0 0 0 0 0 0 0 0 0 0 0 0 0 0 0 0 0 0 0 -0 -0 -0 -0 -0 -0 -0
0 0 0 0 0 0 0 0 0 0 0 0 0 0 0 3 2 1 0 0 0 0 0 0 0 0 0 0 0 0 0 0 0 0 0 0 0 0 0 0 0 0 0 0 0 0 -0 -0 -0
0 0 0 0 0 0 0 0 0 0 0 0 0 0 0 1 2 1 1 0 0 0 0 0 0 0 0 0 0 0 0 0 0 0 0 0 -0 0 0 0 0 0 0 0 0 0 0 0 -0
0 0 0 0 0 0 0 0 0 0 0 0 0 0 0 0 1 2 1 1 0 0 0 0 0 0 0 0 0 0 0 0 0 0 0 0 0 0 0 0 0 0 0 0 0 0 0 0 -0
0 0 0 0 0 0 0 0 0 0 0 0 0 0 0 0 1 1 1 1 1 1 0 0 1 1 0 0 0 0 0 0 0 0 0 0 0 0 0 0 0 0 0 0 0 0 0 0 0
0 0 0 0 0 0 0 0 0 0 0 0 0 0 0 0 0 0 1 1 1 1 1 0 1 2 0 0 0 0 0 0 0 0 0 0 0 0 0 0 0 0 0 0 0 0 0 0 0
0 0 0 0 0 0 0 0 0 0 0 0 0 0 0 0 0 0 0 1 1 1 1 1 1 2 1 2 0 0 0 0 0 0 0 0 0 1 0 0 0 0 0 0 0 0 0 0 0
0 0 0 0 0 0 0 0 0 0 0 0 0 0 0 0 0 0 0 0 0 1 2 1 1 3 1 2 3 1 1 0 0 0 0 0 0 1 0 0 0 0 0 0 0 0 0 0 0
0 0 0 0 0 0 0 0 0 0 0 0 0 0 0 0 0 0 0 0 0 0 2 2 2 2 2 2 2 2 1 0 0 0 1 1 1 2 0 0 0 0 0 0 0 0 0 0 0
0 0 0 0 0 0 0 0 0 -0 0 0 0 0 0 0 0 0 0 0 0 0 3 2 2 1 2 3 3 2 1 1 1 1 1 2 1 1 2 1 0 0 1 0 0 0 0 0 0
0 0 0 0 0 0 0 0 0 0 0 0 0 0 0 0 0 0 0 0 0 1 2 2 3 1 2 3 2 2 2 1 1 1 1 2 1 1 1 1 1 2 1 1 1 1 1 1 1
0 0 0 0 0 0 0 0 0 -0 -0 0 -0 -0 0 0 0 0 0 0 0 2 4 3 3 3 4 2 3 4 3 5 2 3 2 6 2 2 1 2 2 1 2 2 1 3 1 1 1
0 0 0 0 0 0 0 0 0 0 0 0 0 -0 -0 0 0 0 0 0 1 7 8 3 6 4 4 3 5 3 3 0 1 1 1 2 2 2 3 1 3 1 1 3 2 1 1 1 1
0 0 0 0 0 0 0 0 0 0 -0 0 0 0 -0 0 0 0 0 1 1 7 5 1 1 4 5 7 2 1 0 -0 1 0 0 0 0 0 0 0 1 1 0 1 1 2 2 2 1
0 0 0 0 0 0 0 0 -0 -0 0 0 0 -0 0 -0 0 0 0 0 0 1 0 1 0 3 3 2 2 3 1 3 1 1 2 1 0 0 -0 1 -0 -1 1 3 2 3 2 1 1
0 0 0 0 0 0 -0 0 -0 0 0 0 0 0 0 0 0 -0 0 0 0 0 0 1 1 2 2 0 1 1 0 0 0 0 7 4 1 1 1 0 1 1 2 2 2 1 1 1 1
0 0 0 0 0 0 0 0 0 0 0 -0 0 0 0 0 0 0 0 0 0 0 0 3 10 6 2 3 1 2 3 1 0 4 6 6 5 3 1 3 2 1 2 2 2 2 2 1 0
0 0 0 0 0 0 0 0 0 0 0 0 0 0 0 0 0 0 0 0 0 0 0 0 1 4 7 6 4 3 5 4 3 5 4 4 4 4 4 3 3 3 1 2 1 1 1 1 1
-0 0 0 0 0 0 0 0 0 0 0 0 0 0 0 0 0 0 0 0 0 0 0 0 0 1 2 2 4 9 8 4 4 5 3 4 6 6 5 4 2 1 1 1 1 1 1 1 1
0 0 0 0 0 0 0 0 0 0 0 0 0 0 0 0 0 0 0 0 0 0 0 0 0 1 1 1 2 3 2 4 1 3 3 2 2 1 3 1 1 1 1 1 1 0 0 1 0
0 0 0 0 0 0 0 0 0 0 0 0 0 0 0 0 0 0 0 0 0 0 0 0 1 1 1 1 1 2 3 2 2 4 5 3 4 1 1 1 1 0 0 0 0 0 1 0 1
0 0 0 0 0 0 0 -0 0 0 0 0 0 0 0 0 0 0 0 0 0 1 1 2 2 3 4 4 3 2 1 2 4 5 3 3 1 1 1 1 1 1 0 0 1 0 0 0 0
0 0 0 0 0 0 0 0 0 0 0 0 0 0 0 0 0 0 0 0 0 0 0 1 1 2 3 3 3 2 2 2 2 2 2 2 2 1 1 1 0 0 0 0 1 1 0 0 1
0 0 0 0 0 0 0 0 0 0 0 0 0 0 0 0 0 0 0 0 0 0 0 1 1 1 2 2 3 3 2 2 3 3 3 2 2 1 1 0 0 0 0 0 0 0 0 0 0
Wind_Speed_500mb
22 19 17 24 15 16 32 37 6 3 11 9 12 15 19 17 25 12 5 9 29 38 48 48 48 49 48 44 41 38 38 36 34 28 23 20 23 27 30 32 32 28 21 16 13 13 14 15 15
13 19 21 26 17 27 27 37 17 28 17 3 13 8 12 11 19 16 12 16 34 38 46 52 49 51 50 45 42 41 41 39 35 28 22 19 21 27 30 30 28 23 17 14 13 12 12 12 13
17 19 27 19 30 35 34 21 9 23 8 13 10 3 12 12 15 7 7 28 35 36 44 50 50 51 49 45 41 42 45 42 37 29 22 18 20 26 30 29 25 20 15 12 13 12 11 10 11
14 21 26 27 43 40 44 34 11 9 14 12 10 18 3 5 5 4 7 28 36 34 41 46 53 48 49 45 43 47 48 45 40 32 25 21 21 28 30 28 23 17 14 13 14 12 11 9 9
27 32 25 35 50 50 38 31 6 27 20 17 13 17 15 7 4 2 15 31 34 36 38 47 53 48 45 44 44 49 50 46 40 33 27 23 24 31 31 28 22 17 14 13 13 13 11 9 9
28 38 28 36 48 47 48 48 32 30 31 22 23 28 23 5 1 7 20 32 33 37 38 46 51 50 44 44 45 49 49 45 41 35 30 27 29 35 34 30 24 19 16 15 14 14 13 12 11
35 26 36 43 43 41 40 49 38 28 42 40 28 20 22 14 13 13 23 32 36 37 36 43 54 51 46 45 47 47 46 43 40 37 34 31 35 40 37 32 27 21 18 16 16 16 14 14 13
39 27 45 40 39 47 36 26 21 31 38 44 36 23 28 15 8 13 23 31 37 37 36 37 50 53 52 48 49 48 46 45 42 39 35 35 39 42 39 34 29 24 21 20 19 17 16 15 14
26 27 33 43 45 34 28 21 28 28 37 23 31 39 11 4 6 17 26 34 39 40 41 39 44 45 44 43 52 50 48 47 45 42 40 39 41 42 40 36 33 28 25 22 20 18 17 16 16
34 28 45 38 29 28 18 26 19 28 35 39 40 43 12 13 17 22 31 38 43 44 46 42 45 46 44 39 42 52 52 51 49 46 45 45 36 31 28 32 32 29 27 25 22 20 21 20 15
42 41 37 36 21 27 33 35 31 33 38 44 42 46 36 23 22 26 34 38 43 44 46 46 50 54 50 45 42 45 41 42 44 42 47 47 37 35 38 33 38 35 31 29 25 27 25 19 15
42 40 43 45 24 30 31 39 40 43 46 45 46 44 32 29 26 28 35 39 41 44 46 46 47 52 51 44 44 44 44 44 42 45 50 48 42 40 36 35 26 29 29 27 26 19 20 24 27
41 39 37 36 39 41 42 43 43 51 51 48 49 55 52 41 38 33 30 38 43 46 49 50 50 52 55 52 43 42 46 46 44 47 53 48 48 45 40 37 34 31 30 28 28 26 26 24 25
35 44 47 41 41 38 38 43 43 41 35 46 57 64 66 57 55 49 44 42 48 48 50 53 53 56 52 55 47 47 47 42 45 45 50 58 48 48 39 42 37 34 32 30 27 26 26 25 25
35 32 34 40 44 37 30 35 43 51 49 52 54 53 67 74 69 66 54 47 44 51 48 53 53 54 55 59 51 48 42 45 46 46 50 50 53 45 44 38 37 34 33 32 31 30 31 31 31
35 36 35 40 45 41 29 29 23 25 31 41 49 57 60 62 67 64 54 46 42 54 50 47 52 54 56 53 53 46 43 45 47 47 47 49 48 47 43 35 33 30 31 27 27 27 27 29 29
33 33 41 30 25 17 30 26 21 19 20 27 34 42 51 58 64 65 58 50 42 50 46 48 52 53 53 53 47 49 46 46 42 41 42 43 43 41 39 30 30 29 27 24 24 28 33 33 36
31 35 36 29 23 25 28 31 27 30 31 24 25 32 42 51 56 59 53 47 40 48 49 43 48 46 50 42 44 46 52 49 43 43 46 50 38 35 29 31 36 33 33 21 27 32 35 33 29
31 35 39 32 20 14 23 24 29 23 31 21 22 26 32 37 42 53 47 30 40 34 45 41 51 42 47 31 30 38 42 43 29 61 53 34 30 21 20 18 29 38 34 32 41 43 45 36 28
42 27 23 20 23 19 26 29 23 26 24 21 16 17 22 27 40 52 24 31 41 42 35 35 42 50 42 30 30 22 29 31 10 25 25 33 12 15 28 32 40 34 46 55 39 45 34 35 20
37 35 30 27 23 23 23 31 35 30 18 17 15 14 11 15 36 42 38 36 39 42 36 28 27 37 46 19 34 31 33 22 33 27 35 52 43 51 33 36 39 41 43 32 32 36 36 26 22
36 35 31 24 22 25 37 26 24 19 11 20 12 6 14 19 28 50 45 42 46 44 32 34 36 32 41 31 23 57 80 68 55 39 60 57 49 70 43 53 47 45 29 34 30 24 25 22 17
33 22 29 34 32 28 32 16 23 29 17 22 14 7 10 6 13 17 24 27 40 41 40 56 66 70 46 50 65 60 74 78 60 48 39 49 45 57 53 45 38 36 40 38 33 27 28 21 20
29 25 20 23 24 28 34 29 27 25 26 25 22 10 7 7 3 7 10 20 36 39 38 38 53 53 58 52 66 74 85 78 52 50 41 42 45 55 45 36 44 47 38 36 28 30 24 24 23
37 22 22 25 25 27 34 33 28 13 9 10 17 6 5 8 10 13 14 14 16 28 40 27 36 44 68 70 82 94 82 76 65 51 45 40 43 46 47 58 47 36 30 28 25 26 24 26 32
41 32 26 28 24 28 41 26 16 8 26 12 6 3 2 9 15 15 18 16 12 11 23 31 33 37 39 49 57 66 57 57 47 54 38 40 37 38 49 36 31 28 28 31 30 30 30 30 30
35 33 36 35 27 16 10 16 17 18 23 17 13 5 6 7 10 16 17 17 14 7 5 14 20 23 27 29 32 35 46 54 48 39 40 31 29 27 33 34 27 28 32 31 30 31 33 39 42
41 28 23 17 29 30 28 35 16 28 26 22 17 12 6 4 10 16 18 19 20 19 15 10 7 17 20 24 31 39 46 40 35 39 33 28 26 20 23 23 24 23 26 29 34 30 31 40 43
32 38 22 30 24 23 27 4 4 12 24 22 14 15 8 0 8 13 17 18 24 24 26 25 25 23 19 20 15 15 18 22 25 26 29 22 20 19 18 19 21 23 28 30 35 39 41 40 44
29 19 37 23 33 5 20 5 13 11 7 7 11 14 6 6 3 11 12 14 18 22 24 23 25 24 18 16 16 16 17 16 14 14 14 14 13 15 16 22 26 30 35 38 41 42 44 47 51
Wind_Direction_500mb
255 272 276 274 248 230 255 239 322 339 217 64 322 311 338 306 350 91 154 158 159 162 167 170 174 173 174 175 180 183 180 175 169 162 147 137 139 149 154 148 148 150 148 147 146 138 128 121 120
220 245 240 267 252 251 236 246 150 239 82 4 284 304 298 43 37 92 125 149 156 164 166 171 179 176 175 178 183 188 185 180 176 170 158 146 148 160 163 158 156 154 155 160 155 144 132 129 129
214 221 246 230 237 249 257 226 120 253 99 273 277 46 321 17 56 53 127 148 160 162 166 177 177 177 176 178 181 188 186 183 181 177 170 162 162 169 173 168 164 162 163 166 156 155 149 147 143
210 212 246 250 245 236 248 273 153 303 233 230 283 277 338 142 332 33 145 159 167 166 166 174 176 181 178 180 179 187 185 184 184 184 183 177 177 178 182 179 174 171 170 174 166 169 169 162 161
217 239 234 231 242 254 265 255 175 224 281 264 248 279 268 156 120 147 165 163 169 170 174 177 179 180 183 180 183 185 184 185 188 190 191 190 188 186 188 186 182 179 181 184 177 179 185 183 191
219 233 238 237 241 237 246 254 232 248 251 268 270 255 260 130 213 172 171 172 173 175 181 184 183 182 186 182 185 186 186 189 192 195 198 199 197 190 191 190 189 190 192 189 191 190 196 206 219
237 221 243 250 257 249 236 237 251 253 258 252 254 277 266 242 184 173 177 178 177 181 182 184 183 187 185 189 188 189 191 194 198 201 204 205 200 194 194 194 196 197 198 200 204 204 209 219 230
240 254 257 248 255 259 260 257 237 252 265 262 258 262 256 67 130 176 179 181 181 185 186 183 184 188 187 193 195 195 196 199 201 205 209 207 201 198 197 199 202 204 205 209 213 216 223 233 246
232 255 245 244 248 249 259 272 274 247 266 255 261 231 285 313 209 195 189 188 189 191 190 186 185 187 188 193 196 198 200 203 204 208 210 205 202 201 204 205 207 207 212 217 223 227 235 244 252
226 227 242 255 281 278 271 287 268 270 253 247 245 246 257 250 228 220 201 197 197 195 192 190 187 189 186 193 201 199 202 205 207 210 208 198 192 205 203 229 220 217 217 224 229 235 240 245 255
221 243 254 256 261 287 284 277 269 259 256 255 253 235 219 226 223 222 222 212 207 203 198 196 189 194 185 189 198 193 198 202 206 205 207 191 195 201 196 218 224 223 223 229 232 240 243 253 242
234 249 253 265 262 260 259 268 264 259 259 263 261 258 244 198 232 219 222 222 213 207 206 201 197 197 188 191 197 195 194 199 203 201 206 198 192 205 206 206 212 229 224 224 223 228 224 227 238
238 244 246 248 259 259 264 264 266 263 263 257 255 255 253 238 241 236 227 227 220 208 208 206 201 199 194 193 200 198 197 202 202 204 209 198 199 205 205 209 207 216 208 220 215 221 230 244 255
230 237 256 250 250 249 256 264 262 258 256 254 248 247 248 244 240 245 240 236 229 217 209 208 204 205 200 193 200 200 202 208 205 208 210 199 205 211 207 206 211 212 215 218 225 230 234 251 249
250 252 246 240 243 245 252 263 256 261 255 251 245 245 244 242 242 241 239 234 229 228 214 207 206 207 203 200 198 203 208 205 212 211 211 224 202 210 208 213 213 214 217 218 222 225 238 242 252
232 237 251 240 213 216 213 262 277 262 251 233 246 249 247 244 236 234 234 237 240 223 212 208 210 208 210 208 205 207 211 219 218 216 215 213 210 200 222 212 219 215 216 223 227 237 243 251 255
220 238 223 225 186 229 183 254 267 302 271 258 244 246 247 243 235 233 233 234 239 215 216 207 207 208 210 208 208 212 218 223 225 224 221 215 215 213 205 220 222 221 221 227 237 246 246 247 251
219 218 254 214 157 225 214 237 262 260 261 257 248 245 242 239 233 226 226 232 230 207 205 204 204 204 209 213 208 216 216 223 229 225 223 217 201 209 217 219 217 219 215 222 250 249 249 249 249
244 256 226 207 208 214 254 261 267 271 275 270 257 242 253 240 233 219 219 220 200 194 185 199 203 199 201 208 214 220 234 244 255 232 229 225 214 207 227 231 228 226 240 259 262 247 245 248 256
244 244 243 249 236 237 262 251 261 279 260 267 307 256 245 239 220 208 174 199 190 184 197 201 203 196 191 181 243 258 288 269 266 302 266 239 226 259 256 269 242 218 243 232 227 233 245 257 256
231 229 226 240 220 222 265 266 253 245 232 249 259 288 297 239 210 197 168 187 186 180 184 204 208 212 211 219 247 264 261 282 263 267 262 228 219 228 222 225 207 220 227 230 238 240 242 248 249
219 215 238 242 248 248 226 252 239 193 197 202 218 276 356 340 200 207 205 181 187 187 206 212 217 221 251 227 197 254 241 245 259 278 256 246 225 226 222 205 219 214 210 220 228 220 226 255 250
232 212 220 226 232 248 254 245 269 170 206 231 163 167 76 7 353 318 301 279 218 221 223 229 229 241 223 230 224 229 242 242 241 233 222 235 229 220 211 209 217 214 204 207 208 223 232 223 248
228 239 236 242 236 231 235 245 236 234 189 202 132 104 50 19 25 353 307 279 256 253 228 207 218 217 225 224 220 226 240 235 234 241 237 223 220 209 204 215 200 208 189 216 220 229 238 255 242
227 198 217 216 219 234 224 220 240 76 90 107 87 80 45 348 35 6 3 332 292 242 246 239 233 232 223 236 227 234 239 240 225 228 222 217 223 206 191 203 194 198 208 230 231 253 254 259 264
208 214 243 210 208 228 200 224 204 124 103 105 144 80 355 10 14 1 4 359 343 272 237 222 218 221 230 223 228 236 226 222 213 222 217 214 204 187 201 195 194 211 221 228 242 245 258 256 261
213 215 238 269 275 263 300 237 132 158 150 164 167 177 73 50 31 14 14 17 23 28 281 230 204 210 210 223 236 227 214 210 205 211 200 202 200 188 206 201 211 213 221 232 243 252 238 255 266
238 232 220 233 256 238 207 206 244 166 182 162 160 142 115 82 55 49 38 46 54 55 55 66 134 172 178 204 220 216 211 198 192 189 184 189 185 189 206 196 208 220 233 234 243 242 260 259 265
208 230 223 254 236 255 254 133 355 42 1 159 138 120 148 118 68 71 60 51 63 68 63 63 73 82 101 128 154 167 158 158 163 158 161 179 187 189 200 211 224 231 236 239 243 248 244 249 258
257 259 220 233 215 167 304 39 298 173 216 85 138 141 115 330 80 91 98 67 66 65 72 69 61 70 82 99 116 132 137 146 150 151 167 181 202 220 227 237 244 247 249 250 252 253 255 257 261
Wind_Speed_850mb
22 19 17 24 15 16 32 37 6 3 11 9 12 15 19 17 25 12 5 9 29 38 48 48 48 49 48 44 41 38 38 36 34 28 23 20 23 27 30 32 32 28 21 16 13 13 14 15 15
13 19 21 26 17 27 27 37 17 28 17 3 13 8 12 11 19 16 12 16 34 38 46 52 49 51 50 45 42 41 41 39 35 28 22 19 21 27 30 30 28 23 17 14 13 12 12 12 13
17 19 27 19 30 35 34 21 9 23 8 13 10 3 12 12 15 7 7 28 35 36 44 50 50 51 49 45 41 42 45 42 37 29 22 18 20 26 30 29 25 20 15 12 13 12 11 10 11
14 21 26 27 43 40 44 34 11 9 14 12 10 18 3 5 5 4 7 28 36 34 41 46 53 48 49 45 43 47 48 45 40 32 25 21 21 28 30 28 23 17 14 13 14 12 11 9 9
27 32 25 35 50 50 38 31 6 27 20 17 13 17 15 7 4 2 15 31 34 36 38 47 53 48 45 44 44 49 50 46 40 33 27 23 24 31 31 28 22 17 14 13 13 13 11 9 9
28 38 28 36 48 47 48 48 32 30 31 22 23 28 23 5 1 7 20 32 33 37 38 46 51 50 44 44 45 49 49 45 41 35 30 27 29 35 34 30 24 19 16 15 14 14 13 12 11
35 26 36 43 43 41 40 49 38 28 42 40 28 20 22 14 13 13 23 32 36 37 36 43 54 51 46 45 47 47 46 43 40 37 34 31 35 40 37 32 27 21 18 16 16 16 14 14 13
39 27 45 40 39 47 36 26 21 31 38 44 36 23 28 15 8 13 23 31 37 37 36 37 50 53 52 48 49 48 46 45 42 39 35 35 39 42 39 34 29 24 21 20 19 17 16 15 14
26 27 33 43 45 34 28 21 28 28 37 23 31 39 11 4 6 17 26 34 39 40 41 39 44 45 44 43 52 50 48 47 45 42 40 39 41 42 40 36 33 28 25 22 20 18 17 16 16
34 28 45 38 29 28 18 26 19 28 35 39 40 43 12 13 17 22 31 38 43 44 46 42 45 46 44 39 42 52 52 51 49 46 45 45 36 31 28 32 32 29 27 25 22 20 21 20 15
42 41 37 36 21 27 33 35 31 33 38 44 42 46 36 23 22 26 34 38 43 44 46 46 50 54 50 45 42 45 41 42 44 42 47 47 37 35 38 33 38 35 31 29 25 27 25 19 15
42 40 43 45 24 30 31 39 40 43 46 45 46 44 32 29 26 28 35 39 41 44 46 46 47 52 51 44 44 44 44 44 42 45 50 48 42 40 36 35 26 29 29 27 26 19 20 24 27
41 39 37 36 39 41 42 43 43 51 51 48 49 55 52 41 38 33 30 38 43 46 49 50 50 52 55 52 43 42 46 46 44 47 53 48 48 45 40 37 34 31 30 28 28 26 26 24 25
35 44 47 41 41 38 38 43 43 41 35 46 57 64 66 57 55 49 44 42 48 48 50 53 53 56 52 55 47 47 47 42 45 45 50 58 48 48 39 42 37 34 32 30 27 26 26 25 25
35 32 34 40 44 37 30 35 43 51 49 52 54 53 67 74 69 66 54 47 44 51 48 53 53 54 55 59 51 48 42 45 46 46 50 50 53 45 44 38 37 34 33 32 31 30 31 31 31
35 36 35 40 45 41 29 29 23 25 31 41 49 57 60 62 67 64 54 46 42 54 50 47 52 54 56 53 53 46 43 45 47 47 47 49 48 47 43 35 33 30 31 27 27 27 27 29 29
33 33 41 30 25 17 30 26 21 19 20 27 34 42 51 58 64 65 58 50 42 50 46 48 52 53 53 53 47 49 46 46 42 41 42 43 43 41 39 30 30 29 27 24 24 28 33 33 36
31 35 36 29 23 25 28 31 27 30 31 24 25 32 42 51 56 59 53 47 40 48 49 43 48 46 50 42 44 46 52 49 43 43 46 50 38 35 29 31 36 33 33 21 27 32 35 33 29
31 35 39 32 20 14 23 24 29 23 31 21 22 26 32 37 42 53 47 30 40 34 45 41 51 42 47 31 30 38 42 43 29 61 53 34 30 21 20 18 29 38 34 32 41 43 45 36 28
42 27 23 20 23 19 26 29 23 26 24 21 16 17 22 27 40 52 24 31 41 42 35 35 42 50 42 30 30 22 29 31 10 25 25 33 12 15 28 32 40 34 46 55 39 45 34 35 20
37 35 30 27 23 23 23 31 35 30 18 17 15 14 11 15 36 42 38 36 39 42 36 28 27 37 46 19 34 31 33 22 33 27 35 52 43 51 33 36 39 41 43 32 32 36 36 26 22
36 35 31 24 22 25 37 26 24 19 11 20 12 6 14 19 28 50 45 42 46 44 32 34 36 32 41 31 23 57 80 68 55 39 60 57 49 70 43 53 47 45 29 34 30 24 25 22 17
33 22 29 34 32 28 32 16 23 29 17 22 14 7 10 6 13 17 24 27 40 41 40 56 66 70 46 50 65 60 74 78 60 48 39 49 45 57 53 45 38 36 40 38 33 27 28 21 20
29 25 20 23 24 28 34 29 27 25 26 25 22 10 7 7 3 7 10 20 36 39 38 38 53 53 58 52 66 74 85 78 52 50 41 42 45 55 45 36 44 47 38 36 28 30 24 24 23
37 22 22 25 25 27 34 33 28 13 9 10 17 6 5 8 10 13 14 14 16 28 40 27 36 44 68 70 82 94 82 76 65 51 45 40 43 46 47 58 47 36 30 28 25 26 24 26 32
41 32 26 28 24 28 41 26 16 8 26 12 6 3 2 9 15 15 18 16 12 11 23 31 33 37 39 49 57 66 57 57 47 54 38 40 37 38 49 36 31 28 28 31 30 30 30 30 30
35 33 36 35 27 16 10 16 17 18 23 17 13 5 6 7 10 16 17 17 14 7 5 14 20 23 27 29 32 35 46 54 48 39 40 31 29 27 33 34 27 28 32 31 30 31 33 39 42
41 28 23 17 29 30 28 35 16 28 26 22 17 12 6 4 10 16 18 19 20 19 15 10 7 17 20 24 31 39 46 40 35 39 33 28 26 20 23 23 24 23 26 29 34 30 31 40 43
32 38 22 30 24 23 27 4 4 12 24 22 14 15 8 0 8 13 17 18 24 24 26 25 25 23 19 20 15 15 18 22 25 26 29 22 20 19 18 19 21 23 28 30 35 39 41 40 44
29 19 37 23 33 5 20 5 13 11 7 7 11 14 6 6 3 11 12 14 18 22 24 23 25 24 18 16 16 16 17 16 14 14 14 14 13 15 16 22 26 30 35 38 41 42 44 47 51
Wind_Direction_850mb
255 272 276 274 248 230 255 239 322 339 217 64 322 311 338 306 350 91 154 158 159 162 167 170 174 173 174 175 180 183 180 175 169 162 147 137 139 149 154 148 148 150 148 147 146 138 128 121 120
220 245 240 267 252 251 236 246 150 239 82 4 284 304 298 43 37 92 125 149 156 164 166 171 179 176 175 178 183 188 185 180 176 170 158 146 148 160 163 158 156 154 155 160 155 144 132 129 129
214 221 246 230 237 249 257 226 120 253 99 273 277 46 321 17 56 53 127 148 160 162 166 177 177 177 176 178 181 188 186 183 181 177 170 162 162 169 173 168 164 162 163 166 156 155 149 147 143
210 212 246 250 245 236 248 273 153 303 233 230 283 277 338 142 332 33 145 159 167 166 166 174 176 181 178 180 179 187 185 184 184 184 183 177 177 178 182 179 174 171 170 174 166 169 169 162 161
217 239 234 231 242 254 265 255 175 224 281 264 248 279 268 156 120 147 165 163 169 170 174 177 179 180 183 180 183 185 184 185 188 190 191 190 188 186 188 186 182 179 181 184 177 179 185 183 191
219 233 238 237 241 237 246 254 232 248 251 268 270 255 260 130 213 172 171 172 173 175 181 184 183 182 186 182 185 186 186 189 192 195 198 199 197 190 191 190 189 190 192 189 191 190 196 206 219
237 221 243 250 257 249 236 237 251 253 258 252 254 277 266 242 184 173 177 178 177 181 182 184 183 187 185 189 188 189 191 194 198 201 204 205 200 194 194 194 196 197 198 200 204 204 209 219 230
240 254 257 248 255 259 260 257 237 252 265 262 258 262 256 67 130 176 179 181 181 185 186 183 184 188 187 193 195 195 196 199 201 205 209 207 201 198 197 199 202 204 205 209 213 216 223 233 246
232 255 245 244 248 249 259 272 274 247 266 255 261 231 285 313 209 195 189 188 189 191 190 186 185 187 188 193 196 198 200 203 204 208 210 205 202 201 204 205 207 207 212 217 223 227 235 244 252
226 227 242 255 281 278 271 287 268 270 253 247 245 246 257 250 228 220 201 197 197 195 192 190 187 189 186 193 201 199 202 205 207 210 208 198 192 205 203 229 220 217 217 224 229 235 240 245 255
221 243 254 256 261 287 284 277 269 259 256 255 253 235 219 226 223 222 222 212 207 203 198 196 189 194 185 189 198 193 198 202 206 205 207 191 195 201 196 218 224 223 223 229 232 240 243 253 242
234 249 253 265 262 260 259 268 264 259 259 263 261 258 244 198 232 219 222 222 213 207 206 201 197 197 188 191 197 195 194 199 203 201 206 198 192 205 206 206 212 229 224 224 223 228 224 227 238
238 244 246 248 259 259 264 264 266 263 263 257 255 255 253 238 241 236 227 227 220 208 208 206 201 199 194 193 200 198 197 202 202 204 209 198 199 205 205 209 207 216 208 220 215 221 230 244 255
230 237 256 250 250 249 256 264 262 258 256 254 248 247 248 244 240 245 240 236 229 217 209 208 204 205 200 193 200 200 202 208 205 208 210 199 205 211 207 206 211 212 215 218 225 230 234 251 249
250 252 246 240 243 245 252 263 256 261 255 251 245 245 244 242 242 241 239 234 229 228 214 207 206 207 203 200 198 203 208 205 212 211 211 224 202 210 208 213 213 214 217 218 222 225 238 242 252
232 237 251 240 213 216 213 262 277 262 251 233 246 249 247 244 236 234 234 237 240 223 212 208 210 208 210 208 205 207 211 219 218 216 215 213 210 200 222 212 219 215 216 223 227 237 243 251 255
220 238 223 225 186 229 183 254 267 302 271 258 244 246 247 243 235 233 233 234 239 215 216 207 207 208 210 208 208 212 218 223 225 224 221 215 215 213 205 220 222 221 221 227 237 246 246 247 251
219 218 254 214 157 225 214 237 262 260 261 257 248 245 242 239 233 226 226 232 230 207 205 204 204 204 209 213 208 216 216 223 229 225 223 217 201 209 217 219 217 219 215 222 250 249 249 249 249
244 256 226 207 208 214 254 261 267 271 275 270 257 242 253 240 233 219 219 220 200 194 185 199 203 199 201 208 214 220 234 244 255 232 229 225 214 207 227 231 228 226 240 259 262 247 245 248 256
244 244 243 249 236 237 262 251 261 279 260 267 307 256 245 239 220 208 174 199 190 184 197 201 203 196 191 181 243 258 288 269 266 302 266 239 226 259 256 269 242 218 243 232 227 233 245 257 256
231 229 226 240 220 222 265 266 253 245 232 249 259 288 297 239 210 197 168 187 186 180 184 204 208 212 211 219 247 264 261 282 263 267 262 228 219 228 222 225 207 220 227 230 238 240 242 248 249
219 215 238 242 248 248 226 252 239 193 197 202 218 276 356 340 200 207 205 181 187 187 206 212 217 221 251 227 197 254 241 245 259 278 256 246 225 226 222 205 219 214 210 220 228 220 226 255 250
232 212 220 226 232 248 254 245 269 170 206 231 163 167 76 7 353 318 301 279 218 221 223 229 229 241 223 230 224 229 242 242 241 233 222 235 229 220 211 209 217 214 204 207 208 223 232 223 248
228 239 236 242 236 231 235 245 236 234 189 202 132 104 50 19 25 353 307 279 256 253 228 207 218 217 225 224 220 226 240 235 234 241 237 223 220 209 204 215 200 208 189 216 220 229 238 255 242
227 198 217 216 219 234 224 220 240 76 90 107 87 80 45 348 35 6 3 332 292 242 246 239 233 232 223 236 227 234 239 240 225 228 222 217 223 206 191 203 194 198 208 230 231 253 254 259 264
208 214 243 210 208 228 200 224 204 124 103 105 144 80 355 10 14 1 4 359 343 272 237 222 218 221 230 223 228 236 226 222 213 222 217 214 204 187 201 195 194 211 221 228 242 245 258 256 261
213 215 238 269 275 263 300 237 132 158 150 164 167 177 73 50 31 14 14 17 23 28 281 230 204 210 210 223 236 227 214 210 205 211 200 202 200 188 206 201 211 213 221 232 243 252 238 255 266
238 232 220 233 256 238 207 206 244 166 182 162 160 142 115 82 55 49 38 46 54 55 55 66 134 172 178 204 220 216 211 198 192 189 184 189 185 189 206 196 208 220 233 234 243 242 260 259 265
208 230 223 254 236 255 254 133 355 42 1 159 138 120 148 118 68 71 60 51 63 68 63 63 73 82 101 128 154 167 158 158 163 158 161 179 187 189 200 211 224 231 236 239 243 248 244 249 258
257 259 220 233 215 167 304 39 298 173 216 85 138 141 115 330 80 91 98 67 66 65 72 69 61 70 82 99 116 132 137 146 150 151 167 181 202 220 227 237 244 247 249 250 252 253 255 257 261